• In Latvia
  • List of Countries
  • For 7 days
  • Water Temperature
  • Satellite Maps
  • Weather Map
  • Weather Widgets
  • user-avatar
    Login

    Hourly Weather Andora

    Today, 26 March, Sunday

    Time Temperature Precipitation Wind Pressure Humidity
    00:00 -4°C° 0 mm 2 mps 621 mmHg 87%
    01:00 -4°C° 0 mm 2 mps 621 mmHg 87%
    02:00 -4°C° 0 mm 2 mps 621 mmHg 87%
    03:00 -4°C° 0 mm 2 mps 621 mmHg 88%
    04:00 -4°C° 0 mm 2 mps 621 mmHg 88%
    05:00 -4°C° 0 mm 2 mps 621 mmHg 87%
    06:00 -4°C° 0 mm 2 mps 621 mmHg 87%
    07:00 -2°C° 0 mm 2 mps 622 mmHg 80%
    08:00 +2°C° 0 mm 2 mps 623 mmHg 74%
    09:00 +5°C° 0 mm 2 mps 624 mmHg 67%
    10:00 +6°C° 0 mm 2 mps 625 mmHg 63%
    11:00 +7°C° 0 mm 2 mps 625 mmHg 58%
    12:00 +8°C° 0 mm 2 mps 626 mmHg 54%
    13:00 +8°C° 0 mm 2 mps 625 mmHg 54%
    14:00 +8°C° 0 mm 2 mps 625 mmHg 55%
    15:00 +8°C° 0 mm 2 mps 625 mmHg 55%
    16:00 +6°C° 0 mm 2 mps 624 mmHg 64%
    17:00 +4°C° 0 mm 2 mps 623 mmHg 74%
    18:00 +1°C° 0 mm 2 mps 622 mmHg 83%
    19:00 +1°C° 0 mm 2 mps 622 mmHg 83%
    20:00 -1°C° 0 mm 2 mps 622 mmHg 84%
    21:00 -2°C° 0 mm 2 mps 622 mmHg 84%
    22:00 -2°C° 0 mm 2 mps 622 mmHg 79%
    23:00 -2°C° 0 mm 2 mps 622 mmHg 74%

    Tomorrow, 27 March, Monday

    Time Temperature Precipitation Wind Pressure Humidity
    00:00 -2°C° 0 mm 2 mps 622 mmHg 68%
    01:00 -2°C° 0 mm 2 mps 622 mmHg 69%
    02:00 -2°C° 0 mm 2 mps 622 mmHg 70%
    03:00 -1°C° 0 mm 2 mps 622 mmHg 71%
    04:00 -1°C° 0 mm 2 mps 622 mmHg 72%
    05:00 -1°C° 0 mm 2 mps 622 mmHg 73%
    06:00 -1°C° 0 mm 2 mps 622 mmHg 75%
    07:00 0°C° 0.2 mm 3 mps 623 mmHg 72%
    08:00 +1°C° 0.2 mm 3 mps 624 mmHg 69%
    09:00 +3°C° 0.2 mm 3 mps 625 mmHg 66%
    10:00 +3°C° 0.5 mm 3 mps 625 mmHg 69%
    11:00 +3°C° 0.5 mm 3 mps 626 mmHg 72%
    12:00 +3°C° 0.5 mm 3 mps 626 mmHg 75%
    13:00 +4°C° 0.1 mm 3 mps 626 mmHg 73%
    14:00 +5°C° 0.1 mm 3 mps 626 mmHg 70%
    15:00 +5°C° 0.1 mm 3 mps 626 mmHg 68%
    16:00 +5°C° 0 mm 2 mps 626 mmHg 74%
    17:00 +3°C° 0 mm 2 mps 625 mmHg 81%
    18:00 +3°C° 0 mm 1 mps 625 mmHg 87%
    19:00 +2°C° 0 mm 1 mps 625 mmHg 87%
    20:00 +1°C° 0 mm 1 mps 625 mmHg 88%
    21:00 0°C° 0 mm 1 mps 625 mmHg 88%
    22:00 -1°C° 0 mm 1 mps 625 mmHg 87%
    23:00 -1°C° 0 mm 1 mps 625 mmHg 86%

    Day after tomorrow, 28 March, Tuesday

    Time Temperature Precipitation Wind Pressure Humidity
    00:00 -1°C° 0 mm 1 mps 625 mmHg 84%
    01:00 -1°C° 0 mm 1 mps 625 mmHg 84%
    02:00 -1°C° 0 mm 1 mps 625 mmHg 84%
    03:00 -1°C° 0 mm 1 mps 625 mmHg 84%
    04:00 -2°C° 0 mm 1 mps 625 mmHg 85%
    05:00 -2°C° 0 mm 1 mps 625 mmHg 85%
    06:00 -2°C° 0 mm 1 mps 625 mmHg 85%
    07:00 +1°C° 0 mm 1 mps 627 mmHg 77%
    08:00 +5°C° 0 mm 1 mps 628 mmHg 68%
    09:00 +7°C° 0 mm 0 mps 630 mmHg 59%
    10:00 +9°C° 0 mm 1 mps 630 mmHg 57%
    11:00 +10°C° 0 mm 1 mps 631 mmHg 56%
    12:00 +10°C° 0 mm 2 mps 631 mmHg 54%
    13:00 +10°C° 0 mm 1 mps 631 mmHg 56%
    14:00 +10°C° 0 mm 1 mps 630 mmHg 59%
    15:00 +10°C° 0 mm 1 mps 630 mmHg 61%
    16:00 +8°C° 0 mm 1 mps 629 mmHg 70%
    17:00 +6°C° 0 mm 1 mps 629 mmHg 79%
    18:00 +4°C° 0 mm 1 mps 628 mmHg 88%
    19:00 +2°C° 0 mm 0 mps 628 mmHg 90%
    20:00 +1°C° 0 mm 0 mps 628 mmHg 91%
    21:00 0°C° 0 mm 0 mps 628 mmHg 93%
    22:00 -1°C° 0 mm 0 mps 627 mmHg 92%
    23:00 -1°C° 0 mm 0 mps 627 mmHg 92%

    29 March, Wednesday

    Time Temperature Precipitation Wind Pressure Humidity
    00:00 -1°C° 0 mm 0 mps 627 mmHg 91%
    01:00 -1°C° 0 mm 0 mps 627 mmHg 90%
    02:00 -2°C° 0 mm 0 mps 627 mmHg 89%
    03:00 -2°C° 0 mm 0 mps 626 mmHg 88%
    04:00 -2°C° 0 mm 0 mps 626 mmHg 87%
    05:00 -2°C° 0 mm 0 mps 626 mmHg 86%
    06:00 -2°C° 0 mm 0 mps 626 mmHg 86%
    07:00 +2°C° 0 mm 0 mps 628 mmHg 73%
    08:00 +6°C° 0 mm 0 mps 630 mmHg 61%
    09:00 +9°C° 0 mm 0 mps 632 mmHg 49%
    10:00 +11°C° 0 mm 1 mps 632 mmHg 47%
    11:00 +12°C° 0 mm 1 mps 632 mmHg 44%
    12:00 +13°C° 0 mm 2 mps 632 mmHg 42%
    13:00 +13°C° 0 mm 2 mps 632 mmHg 43%
    14:00 +13°C° 0 mm 2 mps 631 mmHg 45%
    15:00 +13°C° 0 mm 2 mps 631 mmHg 46%
    16:00 +10°C° 0 mm 2 mps 630 mmHg 58%
    17:00 +8°C° 0 mm 1 mps 629 mmHg 70%
    18:00 +5°C° 0 mm 1 mps 627 mmHg 82%
    19:00 +4°C° 0 mm 1 mps 627 mmHg 84%
    20:00 +3°C° 0 mm 1 mps 627 mmHg 86%
    21:00 +2°C° 0 mm 1 mps 627 mmHg 87%
    22:00 +2°C° 0 mm 1 mps 627 mmHg 87%
    23:00 +2°C° 0 mm 1 mps 627 mmHg 86%

    30 March, Thursday

    Time Temperature Precipitation Wind Pressure Humidity
    00:00 +2°C° 0 mm 1 mps 627 mmHg 85%
    01:00 +2°C° 0 mm 1 mps 626 mmHg 85%
    02:00 +1°C° 0 mm 1 mps 626 mmHg 85%
    03:00 +1°C° 0 mm 1 mps 626 mmHg 84%
    04:00 +1°C° 0 mm 1 mps 626 mmHg 84%
    05:00 +1°C° 0 mm 1 mps 626 mmHg 83%
    06:00 +1°C° 0 mm 1 mps 626 mmHg 82%
    07:00 +5°C° 0 mm 1 mps 627 mmHg 69%
    08:00 +8°C° 0 mm 1 mps 629 mmHg 57%
    09:00 +10°C° 0 mm 2 mps 630 mmHg 44%
    10:00 +12°C° 0 mm 2 mps 630 mmHg 42%
    11:00 +13°C° 0 mm 2 mps 630 mmHg 40%
    12:00 +13°C° 0 mm 3 mps 631 mmHg 37%
    13:00 +13°C° 0 mm 3 mps 630 mmHg 39%
    14:00 +13°C° 0 mm 3 mps 630 mmHg 42%
    15:00 +13°C° 0 mm 3 mps 629 mmHg 44%
    16:00 +11°C° 0 mm 3 mps 628 mmHg 55%
    17:00 +8°C° 0 mm 2 mps 627 mmHg 66%
    18:00 +6°C° 0 mm 2 mps 626 mmHg 77%
    19:00 +5°C° 0 mm 2 mps 626 mmHg 80%
    20:00 +4°C° 0 mm 2 mps 626 mmHg 83%
    21:00 +3°C° 0 mm 2 mps 626 mmHg 86%
    22:00 +3°C° 0 mm 2 mps 625 mmHg 84%
    23:00 +3°C° 0 mm 2 mps 625 mmHg 83%

    31 March, Friday

    Time Temperature Precipitation Wind Pressure Humidity
    00:00 +2°C° 0 mm 2 mps 625 mmHg 82%
    01:00 +2°C° 0 mm 2 mps 624 mmHg 78%
    02:00 +2°C° 0 mm 2 mps 624 mmHg 75%
    03:00 +2°C° 0 mm 2 mps 624 mmHg 71%
    04:00 +2°C° 0 mm 2 mps 623 mmHg 70%
    05:00 +2°C° 0 mm 2 mps 623 mmHg 69%
    06:00 +2°C° 0 mm 2 mps 623 mmHg 68%
    07:00 +3°C° 0.1 mm 2 mps 624 mmHg 67%
    08:00 +5°C° 0.1 mm 2 mps 624 mmHg 66%
    09:00 +6°C° 0.1 mm 2 mps 625 mmHg 65%
    10:00 +7°C° 0.2 mm 2 mps 625 mmHg 67%
    11:00 +7°C° 0.2 mm 3 mps 625 mmHg 68%
    12:00 +7°C° 0.2 mm 3 mps 624 mmHg 70%
    13:00 +8°C° 0.5 mm 3 mps 624 mmHg 67%
    14:00 +8°C° 0.5 mm 3 mps 624 mmHg 65%
    15:00 +9°C° 0.5 mm 3 mps 624 mmHg 62%
    16:00 +7°C° 1.2 mm 3 mps 623 mmHg 70%
    17:00 +5°C° 1.2 mm 2 mps 623 mmHg 78%
    18:00 +4°C° 1.2 mm 2 mps 622 mmHg 86%
    19:00 +3°C° 2 mm 2 mps 622 mmHg 87%
    20:00 +2°C° 2 mm 2 mps 622 mmHg 89%
    21:00 +2°C° 2 mm 2 mps 622 mmHg 91%
    22:00 +1°C° 0 mm 2 mps 622 mmHg 90%
    23:00 -1°C° 0 mm 2 mps 621 mmHg 88%
    Show more